Radiation Dose at Monitoring Post of Fukushima Daini Nuclear Power Station
Date,Time,MP-1(microSv/h),MP-2(microSv/h),MP-3(microSv/h),MP-4(microSv/h),MP-5(microSv/h),MP-6(microSv/h),MP-7(microSv/h),Wind Direction,Wind Velocity(m/s),Rain
2015/09/23,00:00,0.487,0.282,0.507,0.464,0.456,0.227,0.197,northwest,0.7,No
2015/09/23,00:10,0.483,0.280,0.506,0.468,0.453,0.226,0.197,west-northwest,1.1,No
2015/09/23,00:20,0.485,0.281,0.507,0.463,0.454,0.226,0.197,west-southwest,0.7,No
2015/09/23,00:30,0.482,0.281,0.507,0.468,0.453,0.226,0.197,southwest,0.8,No
2015/09/23,00:40,0.484,0.284,0.505,0.464,0.454,0.228,0.197,-,CALM,No
2015/09/23,00:50,0.481,0.282,0.508,0.468,0.453,0.227,0.197,-,CALM,No
2015/09/23,01:00,0.484,0.282,0.503,0.463,0.454,0.227,0.197,north-northwest,0.5,No
2015/09/23,01:10,0.480,0.281,0.508,0.469,0.453,0.225,0.198,west-northwest,1.2,No
2015/09/23,01:20,0.485,0.281,0.505,0.464,0.452,0.227,0.196,northwest,0.9,No
2015/09/23,01:30,0.480,0.281,0.509,0.468,0.454,0.226,0.198,west-northwest,0.8,No
2015/09/23,01:40,0.485,0.280,0.502,0.465,0.453,0.227,0.197,northwest,1.8,No
2015/09/23,01:50,0.480,0.281,0.510,0.468,0.454,0.227,0.196,north-northwest,2.9,No
2015/09/23,02:00,0.484,0.281,0.502,0.464,0.453,0.228,0.197,north-northwest,2.6,No
2015/09/23,02:10,0.481,0.283,0.509,0.467,0.453,0.227,0.196,north-northwest,2.3,No
2015/09/23,02:20,0.484,0.281,0.502,0.464,0.453,0.227,0.197,north-northwest,2.5,No
2015/09/23,02:30,0.480,0.283,0.508,0.468,0.455,0.227,0.197,north-northwest,2.7,No
2015/09/23,02:40,0.484,0.280,0.502,0.463,0.454,0.227,0.198,north-northwest,1.9,No
2015/09/23,02:50,0.481,0.284,0.508,0.467,0.454,0.226,0.197,north-northwest,2.2,No
2015/09/23,03:00,0.482,0.281,0.504,0.464,0.451,0.226,0.197,north-northwest,2.3,No
2015/09/23,03:10,0.481,0.283,0.509,0.468,0.453,0.227,0.196,north-northwest,2.6,No
2015/09/23,03:20,0.483,0.279,0.504,0.464,0.450,0.226,0.197,north-northwest,2.2,No
2015/09/23,03:30,0.481,0.281,0.508,0.470,0.456,0.226,0.197,north-northwest,1.4,No
2015/09/23,03:40,0.483,0.280,0.504,0.464,0.451,0.226,0.196,northwest,1.3,No
2015/09/23,03:50,0.481,0.282,0.508,0.467,0.454,0.228,0.198,north-northwest,0.9,No
2015/09/23,04:00,0.484,0.280,0.505,0.464,0.452,0.227,0.196,north-northwest,1.1,No
2015/09/23,04:10,0.480,0.282,0.508,0.468,0.456,0.227,0.197,northwest,0.5,No
2015/09/23,04:20,0.482,0.282,0.506,0.464,0.452,0.226,0.196,west-northwest,0.8,No
2015/09/23,04:30,0.480,0.284,0.509,0.468,0.455,0.227,0.197,north-northwest,1.4,No
2015/09/23,04:40,0.483,0.282,0.505,0.464,0.450,0.227,0.197,north-northwest,1.5,No
2015/09/23,04:50,0.483,0.280,0.508,0.467,0.458,0.227,0.198,north-northwest,1.2,No
2015/09/23,05:00,0.482,0.281,0.506,0.465,0.449,0.227,0.196,north-northeast,1.6,No
2015/09/23,05:10,0.483,0.280,0.506,0.467,0.455,0.227,0.197,north-northeast,1.5,No
2015/09/23,05:20,0.482,0.283,0.506,0.465,0.452,0.227,0.198,northeast,1.8,No
2015/09/23,05:30,0.484,0.280,0.506,0.469,0.456,0.226,0.197,northeast,1.4,No
2015/09/23,05:40,0.483,0.283,0.506,0.464,0.451,0.227,0.196,east-northeast,0.7,No
2015/09/23,05:50,0.484,0.280,0.504,0.468,0.456,0.225,0.197,east-northeast,0.8,No
2015/09/23,06:00,0.480,0.282,0.508,0.463,0.451,0.227,0.197,-,CALM,No
2015/09/23,06:10,0.483,0.281,0.503,0.466,0.453,0.227,0.197,-,CALM,No
2015/09/23,06:20,0.481,0.282,0.508,0.463,0.451,0.227,0.196,north-northeast,1.1,No
2015/09/23,06:30,0.482,0.281,0.504,0.468,0.455,0.226,0.197,north-northeast,1.4,No
2015/09/23,06:40,0.481,0.281,0.509,0.462,0.450,0.226,0.198,north,1.5,No
2015/09/23,06:50,0.483,0.282,0.504,0.468,0.455,0.226,0.197,north,1.9,No
2015/09/23,07:00,0.480,0.281,0.508,0.464,0.452,0.227,0.197,north-northeast,1.5,No
2015/09/23,07:10,0.484,0.281,0.502,0.468,0.454,0.226,0.196,north-northeast,2.1,No
2015/09/23,07:20,0.479,0.282,0.507,0.463,0.453,0.227,0.197,north-northeast,1.9,No
2015/09/23,07:30,0.483,0.280,0.505,0.467,0.450,0.226,0.196,north,2.2,No
2015/09/23,07:40,0.481,0.282,0.507,0.463,0.454,0.226,0.195,north,1.8,No
2015/09/23,07:50,0.483,0.281,0.507,0.464,0.449,0.226,0.197,north,2.8,No
2015/09/23,08:00,0.483,0.283,0.504,0.467,0.455,0.226,0.197,north,2.7,No
2015/09/23,08:10,0.480,0.282,0.509,0.464,0.452,0.227,0.197,north,1.8,No
2015/09/23,08:20,0.485,0.279,0.503,0.468,0.452,0.227,0.196,north,2.7,No
2015/09/23,08:30,0.480,0.282,0.508,0.464,0.454,0.228,0.198,north,1.2,No
2015/09/23,08:40,0.483,0.279,0.506,0.465,0.450,0.225,0.195,north-northwest,1.0,No
2015/09/23,08:50,0.482,0.282,0.503,0.468,0.452,0.227,0.197,north,1.0,No
2015/09/23,09:00,0.478,0.282,0.507,0.461,0.454,0.228,0.197,north,1.5,No
2015/09/23,09:10,0.484,0.280,0.504,0.465,0.451,0.225,0.195,north,0.5,No
2015/09/23,09:20,0.482,0.280,0.503,0.468,0.450,0.226,0.196,north,0.6,No
2015/09/23,09:30,0.477,0.283,0.506,0.463,0.455,0.227,0.197,north,1.6,No
2015/09/23,09:40,0.483,0.281,0.502,0.460,0.452,0.226,0.197,north-northeast,1.9,No
2015/09/23,09:50,0.483,0.280,0.502,0.467,0.448,0.226,0.195,north-northeast,1.8,No
2015/09/23,10:00,0.478,0.282,0.509,0.467,0.454,0.227,0.199,north-northeast,2.0,No
2015/09/23,10:10,0.481,0.283,0.505,0.462,0.457,0.226,0.198,north-northeast,1.7,No
2015/09/23,10:20,0.484,0.282,0.502,0.459,0.454,0.227,0.197,north-northeast,1.4,No
2015/09/23,10:30,0.482,0.279,0.510,0.465,0.450,0.225,0.195,northeast,1.4,No
2015/09/23,10:40,0.475,0.281,0.505,0.466,0.447,0.228,0.197,north-northeast,0.7,No
2015/09/23,10:50,0.484,0.283,0.501,0.464,0.451,0.226,0.198,northeast,1.1,No
2015/09/23,11:00,0.485,0.283,0.505,0.464,0.455,0.227,0.197,northeast,2.6,No
2015/09/23,11:10,0.480,0.281,0.508,0.461,0.453,0.226,0.197,northeast,2.2,No
2015/09/23,11:20,0.478,0.280,0.506,0.459,0.452,0.226,0.196,northeast,2.4,No
2015/09/23,11:30,0.478,0.279,0.504,0.462,0.451,0.227,0.195,northeast,2.2,No
2015/09/23,11:40,0.475,0.279,0.501,0.461,0.452,0.227,0.196,northeast,3.6,No
2015/09/23,11:50,0.485,0.279,0.503,0.464,0.449,0.226,0.196,east-northeast,1.7,No
2015/09/23,12:00,0.485,0.284,0.501,0.464,0.450,0.227,0.198,northeast,2.2,No
2015/09/23,12:10,0.481,0.284,0.501,0.470,0.450,0.228,0.199,east-northeast,2.3,No
2015/09/23,12:20,0.479,0.283,0.501,0.469,0.450,0.229,0.197,northeast,1.6,No
2015/09/23,12:30,0.487,0.282,0.501,0.467,0.450,0.227,0.198,east,1.6,No
2015/09/23,12:40,0.487,0.280,0.502,0.468,0.452,0.228,0.197,east,2.4,No
2015/09/23,12:50,0.483,0.280,0.503,0.467,0.452,0.227,0.197,east-northeast,2.3,No
2015/09/23,13:00,0.480,0.280,0.504,0.467,0.452,0.228,0.197,east,2.5,No
2015/09/23,13:10,0.484,0.282,0.504,0.466,0.451,0.228,0.196,east,2.6,No
2015/09/23,13:20,0.486,0.284,0.504,0.466,0.451,0.228,0.196,east,2.0,No
2015/09/23,13:30,0.481,0.284,0.504,0.465,0.451,0.227,0.195,northeast,1.7,No
2015/09/23,13:40,0.479,0.282,0.504,0.465,0.451,0.228,0.197,northeast,1.2,No
2015/09/23,13:50,0.485,0.281,0.504,0.464,0.451,0.226,0.198,east,1.3,No
2015/09/23,14:00,0.488,0.281,0.504,0.463,0.451,0.227,0.199,east-northeast,1.8,No
2015/09/23,14:10,0.483,0.281,0.505,0.464,0.452,0.228,0.197,east,1.4,No
2015/09/23,14:20,0.479,0.278,0.505,0.471,0.453,0.228,0.197,east-northeast,2.8,No
2015/09/23,14:30,0.487,0.281,0.504,0.470,0.451,0.227,0.196,east-northeast,2.2,No
2015/09/23,14:40,0.486,0.285,0.504,0.468,0.452,0.227,0.198,east-northeast,1.6,No
2015/09/23,14:50,0.481,0.283,0.507,0.464,0.452,0.228,0.199,northeast,0.9,No
2015/09/23,15:00,0.486,0.283,0.512,0.472,0.456,0.228,0.197,northeast,0.7,No
2015/09/23,15:10,0.486,0.281,0.506,0.471,0.463,0.230,0.199,north-northeast,0.8,No
2015/09/23,15:20,0.481,0.285,0.505,0.465,0.458,0.228,0.199,east-northeast,1.4,No
2015/09/23,15:30,0.485,0.283,0.515,0.471,0.454,0.229,0.198,northeast,0.9,No
2015/09/23,15:40,0.486,0.283,0.512,0.469,0.455,0.227,0.199,east,1.4,No
2015/09/23,15:50,0.482,0.284,0.504,0.465,0.458,0.228,0.198,southeast,1.5,No
2015/09/23,16:00,0.483,0.282,0.513,0.472,0.456,0.230,0.197,east,1.7,No
2015/09/23,16:10,0.485,0.283,0.509,0.470,0.451,0.229,0.198,east-southeast,1.1,No
2015/09/23,16:20,0.480,0.283,0.504,0.464,0.451,0.227,0.198,east,1.6,No
2015/09/23,16:30,0.483,0.283,0.510,0.471,0.459,0.228,0.199,east-southeast,0.8,No
2015/09/23,16:40,0.483,0.284,0.508,0.470,0.455,0.228,0.199,-,CALM,No
2015/09/23,16:50,0.479,0.281,0.505,0.465,0.453,0.227,0.198,-,CALM,No
2015/09/23,17:00,0.487,0.282,0.510,0.469,0.459,0.227,0.198,-,CALM,No
2015/09/23,17:10,0.483,0.283,0.507,0.466,0.455,0.227,0.197,south-southeast,1.4,No
2015/09/23,17:20,0.485,0.282,0.512,0.472,0.457,0.227,0.199,south-southwest,1.2,No
2015/09/23,17:30,0.487,0.285,0.510,0.469,0.458,0.228,0.198,south-southwest,1.4,No
2015/09/23,17:40,0.482,0.281,0.507,0.465,0.453,0.227,0.198,south-southwest,1.0,No
2015/09/23,17:50,0.486,0.284,0.514,0.470,0.457,0.228,0.198,south-southwest,1.1,No
2015/09/23,18:00,0.482,0.282,0.506,0.465,0.454,0.228,0.198,-,CALM,No
2015/09/23,18:10,0.486,0.283,0.508,0.471,0.457,0.229,0.198,south,0.8,No
2015/09/23,18:20,0.485,0.282,0.510,0.468,0.456,0.228,0.198,-,CALM,No
2015/09/23,18:30,0.484,0.284,0.507,0.469,0.455,0.227,0.198,south-southeast,0.5,No
2015/09/23,18:40,0.484,0.283,0.511,0.470,0.456,0.227,0.198,south,0.7,No
2015/09/23,18:50,0.482,0.283,0.506,0.468,0.454,0.227,0.199,-,CALM,No
2015/09/23,19:00,0.485,0.282,0.512,0.471,0.458,0.228,0.199,-,CALM,No
2015/09/23,19:10,0.483,0.284,0.507,0.466,0.454,0.228,0.198,south-southwest,1.0,No
2015/09/23,19:20,0.488,0.283,0.511,0.472,0.457,0.229,0.200,southwest,0.7,No
2015/09/23,19:30,0.482,0.283,0.510,0.467,0.452,0.227,0.198,south,0.8,No
2015/09/23,19:40,0.484,0.283,0.509,0.472,0.455,0.228,0.199,-,CALM,No
2015/09/23,19:50,0.484,0.283,0.509,0.466,0.452,0.228,0.197,-,CALM,No
2015/09/23,20:00,0.484,0.282,0.508,0.470,0.457,0.228,0.198,-,CALM,No
2015/09/23,20:10,0.483,0.284,0.511,0.467,0.453,0.228,0.198,-,CALM,No
2015/09/23,20:20,0.484,0.281,0.508,0.470,0.458,0.228,0.198,-,CALM,No
2015/09/23,20:30,0.485,0.285,0.511,0.467,0.454,0.228,0.198,south-southwest,0.6,No
2015/09/23,20:40,0.483,0.281,0.505,0.468,0.457,0.227,0.198,-,CALM,No
2015/09/23,20:50,0.486,0.285,0.511,0.467,0.453,0.228,0.200,south-southwest,0.7,No
2015/09/23,21:00,0.483,0.281,0.507,0.472,0.458,0.228,0.197,south-southwest,0.9,No
2015/09/23,21:10,0.486,0.283,0.511,0.467,0.452,0.229,0.199,south,0.8,No
2015/09/23,21:20,0.483,0.283,0.506,0.470,0.457,0.228,0.197,south-southeast,0.8,No
2015/09/23,21:30,0.486,0.283,0.512,0.468,0.452,0.228,0.197,east-southeast,0.7,No
2015/09/23,21:40,0.483,0.283,0.508,0.469,0.459,0.228,0.198,south-southwest,0.9,No
2015/09/23,21:50,0.487,0.285,0.511,0.468,0.453,0.229,0.199,south-southwest,0.7,No
2015/09/23,22:00,0.481,0.282,0.508,0.468,0.459,0.227,0.199,south-southwest,0.8,No
2015/09/23,22:10,0.484,0.281,0.510,0.468,0.453,0.229,0.198,-,CALM,No
2015/09/23,22:20,0.482,0.283,0.508,0.469,0.456,0.227,0.199,southwest,0.7,No
2015/09/23,22:30,0.485,0.282,0.511,0.467,0.453,0.227,0.198,west-southwest,0.9,No
2015/09/23,22:40,0.481,0.284,0.506,0.468,0.456,0.227,0.199,southwest,0.7,No
2015/09/23,22:50,0.487,0.281,0.510,0.467,0.453,0.228,0.198,-,CALM,No
2015/09/23,23:00,0.481,0.284,0.508,0.469,0.453,0.229,0.198,-,CALM,No
2015/09/23,23:10,0.486,0.283,0.512,0.467,0.454,0.228,0.198,-,CALM,No
2015/09/23,23:20,0.481,0.283,0.510,0.468,0.454,0.228,0.197,-,CALM,No
2015/09/23,23:30,0.487,0.283,0.510,0.466,0.455,0.228,0.198,-,CALM,No
2015/09/23,23:40,0.481,0.284,0.506,0.471,0.455,0.228,0.197,west-southwest,0.6,No
2015/09/23,23:50,0.485,0.282,0.511,0.465,0.456,0.227,0.198,-,CALM,No
